Date String (YYYY-MM-DD hh:mm:ss) UTC,Instrument flags,Ambient pressure (hPa),Sample flow (lpm),Bypass flow (lpm),Sample temperature (°C),Ambient temperature (°C),ASC tube jacket temperature (°C),LED temperature (°C),Box temperature (°C),Sample RH (%),Span deviation,Mass concentration (μg/m³),Mass concentration (μg/m³),Mass concentration (μg/m³)
DateTimeUTC,F1_M11,P_M11,Q1_M11,Q2_M11,T1_M11,T2_M11,T3_M11,T4_M11,T5_M11,U1_M11,ZSPAN_M11,X0_M11,X2_M11,X1_M11
2023-01-11 08:00:00,,0816.6,5.01,0.00,22.1,20.7,00.0,31.0,23.9,16.3,0000.0,0005.61,0003.95,0003.84
2023-01-11 08:01:00,,0816.6,4.99,0.00,22.1,20.6,00.0,31.0,23.8,16.3,0000.0,0005.83,0003.89,0003.78
2023-01-11 08:02:00,,0816.6,4.99,0.00,22.1,20.6,00.0,31.0,23.8,16.3,0000.0,0005.84,0003.86,0003.74
2023-01-11 08:03:00,,0816.7,5.00,0.00,22.1,20.6,00.0,30.9,23.8,16.4,0000.0,0005.87,0003.84,0003.71
2023-01-11 08:04:00,,0816.6,4.99,0.00,22.0,20.6,00.0,30.9,23.8,16.4,0000.0,0005.90,0003.82,0003.67
2023-01-11 08:05:00,,0816.6,4.99,0.00,22.0,20.5,00.0,30.9,23.8,16.4,0000.0,0005.78,0003.78,0003.64
2023-01-11 08:06:00,,0816.7,5.00,0.00,22.0,20.5,00.0,30.9,23.8,16.4,0000.0,0007.29,0003.75,0003.62
2023-01-11 08:07:00,,0816.6,5.00,0.00,22.0,20.5,00.0,30.9,23.8,16.5,0000.0,0007.21,0003.71,0003.60
2023-01-11 08:08:00,,0816.7,5.00,0.00,22.0,20.6,00.0,30.9,23.8,16.7,0000.0,0007.16,0003.70,0003.58
2023-01-11 08:09:00,,0816.5,5.01,0.00,22.0,20.6,00.0,30.9,23.8,16.8,0000.0,0007.45,0003.69,0003.57
2023-01-11 08:10:00,,0816.6,5.01,0.00,22.0,20.5,00.0,30.9,23.8,16.8,0000.0,0007.63,0003.68,0003.55
2023-01-11 08:11:00,,0816.6,5.00,0.00,22.0,20.5,00.0,30.9,23.8,16.9,0000.0,0007.44,0003.67,0003.53
2023-01-11 08:12:00,,0816.5,5.00,0.00,22.0,20.5,00.0,30.9,23.8,16.8,0000.0,0007.25,0003.67,0003.53
2023-01-11 08:13:00,,0816.6,5.00,0.00,22.0,20.4,00.0,30.9,23.7,16.7,0000.0,0007.21,0003.67,0003.53
2023-01-11 08:14:00,,0816.5,4.99,0.00,22.0,20.4,00.0,30.9,23.7,16.6,0000.0,0007.16,0003.66,0003.52
2023-01-11 08:15:00,,0816.6,5.02,0.00,22.0,20.4,00.0,30.9,23.7,16.6,0000.0,0007.12,0003.66,0003.52
2023-01-11 08:16:00,,0816.5,5.02,0.00,21.9,20.4,00.0,30.9,23.7,16.6,0000.0,0007.18,0003.66,0003.52
2023-01-11 08:17:00,,0816.7,5.00,0.00,21.9,20.4,00.0,30.9,23.7,16.6,0000.0,0005.68,0003.66,0003.52
2023-01-11 08:18:00,,0816.6,4.98,0.00,21.9,20.4,00.0,30.9,23.6,16.5,0000.0,0005.70,0003.66,0003.51
2023-01-11 08:19:00,,0816.5,5.01,0.00,21.9,20.4,00.0,30.9,23.6,16.5,0000.0,0005.74,0003.64,0003.49
2023-01-11 08:20:00,,0816.5,5.00,0.00,21.9,20.4,00.0,30.8,23.6,16.5,0000.0,0005.80,0003.64,0003.48
2023-01-11 08:21:00,,0816.5,5.01,0.00,21.9,20.4,00.0,30.8,23.6,16.6,0000.0,0006.19,0003.63,0003.48
2023-01-11 08:22:00,,0816.5,4.98,0.00,21.9,20.4,00.0,30.8,23.6,16.6,0000.0,0006.14,0003.63,0003.48
2023-01-11 08:23:00,,0816.5,5.01,0.00,21.9,20.4,00.0,30.8,23.6,16.7,0000.0,0006.70,0003.64,0003.49
2023-01-11 08:24:00,,0816.5,5.00,0.00,21.9,20.4,00.0,30.8,23.6,16.9,0000.0,0006.98,0003.64,0003.50
2023-01-11 08:25:00,,0816.5,5.00,0.00,21.9,20.4,00.0,30.8,23.6,17.0,0000.0,0006.99,0003.65,0003.51
2023-01-11 08:26:00,,0816.5,5.00,0.00,21.9,20.3,00.0,30.8,23.6,17.0,0000.0,0006.98,0003.65,0003.51
2023-01-11 08:27:00,,0816.4,5.00,0.00,21.9,20.3,00.0,30.8,23.6,16.9,0000.0,0006.88,0003.64,0003.51
2023-01-11 08:28:00,,0816.4,4.99,0.00,21.9,20.3,00.0,30.8,23.6,16.9,0000.0,0006.87,0003.64,0003.51
2023-01-11 08:29:00,,0816.4,4.99,0.00,21.8,20.3,00.0,30.8,23.5,16.7,0000.0,0006.72,0003.63,0003.51
2023-01-11 08:30:00,,0816.4,4.98,0.00,21.8,20.3,00.0,30.8,23.5,16.7,0000.0,0006.62,0003.62,0003.50
2023-01-11 08:31:00,,0816.3,4.99,0.00,21.8,20.3,00.0,30.8,23.5,16.9,0000.0,0006.21,0003.60,0003.50
2023-01-11 08:32:00,,0816.3,4.97,0.00,21.8,20.3,00.0,30.7,23.5,17.2,0000.0,0005.31,0003.59,0003.49
2023-01-11 08:33:00,,0816.3,4.97,0.00,21.8,20.3,00.0,30.7,23.5,17.2,0000.0,0005.35,0003.58,0003.49
2023-01-11 08:34:00,,0816.3,4.96,0.00,21.8,20.3,00.0,30.7,23.6,17.1,0000.0,0004.86,0003.56,0003.46
2023-01-11 08:35:00,,0816.4,4.98,0.00,21.8,20.3,00.0,30.7,23.6,17.1,0000.0,0004.46,0003.54,0003.44
2023-01-11 08:36:00,,0816.4,5.03,0.00,21.8,20.5,00.0,30.7,23.6,17.0,0000.0,0004.40,0003.52,0003.42
2023-01-11 08:37:00,,0816.4,5.02,0.00,21.9,21.5,00.0,30.7,23.8,16.9,0000.0,0004.33,0003.50,0003.41
2023-01-11 08:38:00,,0816.4,5.00,0.00,22.0,22.5,00.0,30.7,24.1,16.9,0000.0,0004.36,0003.50,0003.41
2023-01-11 08:39:00,,0816.4,5.00,0.00,22.1,22.7,00.0,30.8,24.2,16.8,0000.0,0004.51,0003.54,0003.42
2023-01-11 08:40:00,,0816.4,4.98,0.00,22.2,22.2,00.0,30.8,24.2,16.7,0000.0,0004.59,0003.56,0003.43
2023-01-11 08:41:00,,0816.4,5.00,0.00,22.2,21.9,00.0,30.9,24.1,16.7,0000.0,0004.69,0003.59,0003.45
2023-01-11 08:42:00,,0816.4,4.99,0.00,22.2,21.6,00.0,30.9,24.1,16.7,0000.0,0004.76,0003.62,0003.48
2023-01-11 08:43:00,,0816.3,5.01,0.00,22.2,21.3,00.0,30.9,24.0,16.6,0000.0,0005.02,0003.64,0003.50
2023-01-11 08:44:00,,0816.3,4.99,0.00,22.2,21.1,00.0,30.9,23.9,16.6,0000.0,0005.34,0003.66,0003.51
2023-01-11 08:45:00,,0816.3,5.01,0.00,22.2,21.0,00.0,31.0,23.9,16.7,0000.0,0005.68,0003.67,0003.52
2023-01-11 08:46:00,,0816.2,4.99,0.00,22.2,20.9,00.0,31.0,23.9,16.7,0000.0,0005.76,0003.67,0003.53
2023-01-11 08:47:00,,0816.3,5.01,0.00,22.1,20.8,00.0,31.0,23.9,16.6,0000.0,0005.76,0003.67,0003.54
2023-01-11 08:48:00,,0816.3,5.00,0.00,22.1,20.7,00.0,31.0,23.9,16.6,0000.0,0005.82,0003.67,0003.53
2023-01-11 08:49:00,,0816.3,5.01,0.00,22.1,20.7,00.0,31.0,23.9,16.5,0000.0,0005.74,0003.65,0003.52
2023-01-11 08:50:00,,0816.2,4.99,0.00,22.1,20.7,00.0,31.0,23.9,16.5,0000.0,0005.60,0003.59,0003.49
2023-01-11 08:51:00,,0816.1,4.99,0.00,22.1,20.6,00.0,31.0,23.8,16.5,0000.0,0005.60,0003.58,0003.45
2023-01-11 08:52:00,,0816.1,5.00,0.00,22.1,20.6,00.0,31.0,23.8,16.4,0000.0,0006.09,0003.56,0003.42
2023-01-11 08:53:00,,0816.1,5.00,0.00,22.0,20.5,00.0,31.0,23.8,16.5,0000.0,0006.05,0003.53,0003.39
2023-01-11 08:54:00,,0816.1,5.01,0.00,22.0,20.5,00.0,30.9,23.7,16.6,0000.0,0005.85,0003.50,0003.36
2023-01-11 08:55:00,,0816.1,5.00,0.00,22.0,20.4,00.0,30.9,23.7,16.6,0000.0,0005.35,0003.44,0003.32
2023-01-11 08:56:00,,0816.1,4.99,0.00,22.0,20.4,00.0,30.9,23.7,16.7,0000.0,0005.04,0003.41,0003.27
2023-01-11 08:57:00,,0816.1,5.00,0.00,22.0,20.4,00.0,30.9,23.7,16.8,0000.0,0004.86,0003.39,0003.24
2023-01-11 08:58:00,,0816.1,5.01,0.00,22.0,20.4,00.0,30.9,23.7,16.9,0000.0,0004.80,0003.36,0003.20
2023-01-11 08:59:00,,0816.1,5.00,0.00,22.0,20.4,00.0,30.9,23.7,16.8,0000.0,0004.69,0003.32,0003.18
